Ketchikan, AK

7:25 AM AKST on November 15, 2018 (GMT -0900)
Ketchikan International

Weather History for PAKT - March, 2018

Change the Weather History Date:

Thursday, March 29, 2018

  Actual Average Record
Temperature  
Mean Temperature 38 °F 40 °F  
Max Temperature 43 °F 46 °F 56 °F (1957)
Min Temperature 32 °F 33 °F 22 °F (1965)
Degree Days  
Heating Degree Days 27 25  
Month to date heating degree days 735 794  
Moisture  
Dew Point 33 °F    
Average Humidity 89    
Maximum Humidity 97    
Minimum Humidity 65    
Precipitation  
Precipitation 0.21 in 0.34 in 3.40 in (1966)
Month to date precipitation 6.41 10.21  
Year to date precipitation 26.84 36.14  
Sea Level Pressure  
Sea Level Pressure 30.04 in    
Wind  
Wind Speed 5 mph (NW)    
Max Wind Speed 15 mph    
Max Gust Speed 21 mph    
Visibility 10 miles    
Events Rain    
T = Trace of Precipitation, MM = Missing Value Source: NWS Daily Summary

Daily Weather History Graph

Daily Weather History Graph

Search for Another Location

Airport or City:

Astronomy

Mar. 29, 2018 Rise Set
Actual Time 6:25 AM AKDT 7:18 PM AKDT
Civil Twilight 5:48 AM AKDT 7:56 PM AKDT
Nautical Twilight 5:03 AM AKDT 8:41 PM AKDT
Astronomical Twilight 4:14 AM AKDT 9:30 PM AKDT
Moon 5:09 PM AKDT (3/29) 6:13 AM AKDT (3/29)
Length of Visible Light 14h 07m
Length of Day
12h 53m
Waxing Gibbous, 96% of the Moon is Illuminated
Mar 29
Waxing Gibbous
Mar 31
Full
Apr 7
Last Quarter
Apr 15
New
Apr 22
First Quarter

Hourly Weather History & Observations

Time (AKDT) Temp. Windchill Dew Point Humidity Pressure Visibility Wind Dir Wind Speed Gust Speed Precip Events Conditions
12:53 AM 35.1 °F - 33.1 °F 92% 30.27 in 10.0 mi Calm Calm - N/A   Clear
1:53 AM 32.0 °F - 30.9 °F 96% 30.25 in 10.0 mi Calm Calm - N/A   Clear
2:53 AM 34.0 °F - 32.0 °F 92% 30.23 in 10.0 mi Calm Calm - N/A   Overcast
3:53 AM 35.1 °F - 33.1 °F 92% 30.21 in 10.0 mi Calm Calm - N/A   Overcast
4:53 AM 34.0 °F - 32.0 °F 92% 30.19 in 10.0 mi Calm Calm - N/A   Overcast
5:53 AM 35.1 °F - 33.1 °F 92% 30.16 in 10.0 mi Calm Calm - N/A   Overcast
6:53 AM 35.1 °F 32.2 °F 32.0 °F 89% 30.13 in 10.0 mi SSE 3.5 mph - N/A   Overcast
7:53 AM 37.0 °F - 34.0 °F 89% 30.10 in 10.0 mi Calm Calm - N/A   Overcast
8:53 AM 39.0 °F - 34.0 °F 82% 30.07 in 10.0 mi Calm Calm - N/A   Overcast
9:53 AM 41.0 °F - 32.0 °F 70% 30.05 in 10.0 mi Calm Calm - N/A   Overcast
10:53 AM 42.1 °F - 30.9 °F 65% 30.03 in 10.0 mi Calm Calm - N/A   Overcast
11:53 AM 39.0 °F 35.7 °F 34.0 °F 82% 30.01 in 10.0 mi WNW 4.6 mph - 0.01 in Rain Light Rain
12:53 PM 37.0 °F 32.4 °F 34.0 °F 89% 29.99 in 7.0 mi WNW 5.8 mph - 0.04 in Rain Light Rain
1:53 PM 37.0 °F 31.0 °F 35.1 °F 93% 29.97 in 10.0 mi WNW 8.1 mph - 0.05 in Rain Light Rain
2:53 PM 36.0 °F 27.1 °F 34.0 °F 93% 29.94 in 7.0 mi NW 13.8 mph - 0.02 in Rain Light Rain
3:53 PM 35.6 °F 28.6 °F 33.8 °F 93% 29.93 in 9.0 mi WNW 9.2 mph - N/A   Overcast
3:55 PM 36.0 °F 29.0 °F 35.1 °F 97% 29.93 in 9.0 mi WNW 9.2 mph - 0.00 in   Overcast
4:02 PM 36.0 °F 29.6 °F 35.1 °F 97% 29.93 in 7.0 mi WNW 8.1 mph - 0.00 in Rain Light Rain
4:53 PM 35.6 °F 27.5 °F 33.8 °F 93% 29.94 in 8.0 mi NW 11.5 mph - N/A Rain Light Rain
5:53 PM 37.4 °F 30.8 °F 33.8 °F 87% 29.94 in 10.0 mi WNW 9.2 mph - N/A Rain Light Rain
6:26 PM 37.9 °F 31.5 °F 35.1 °F 89% 29.93 in 10.0 mi North 9.2 mph - 0.00 in   Overcast
6:33 PM 37.9 °F 30.5 °F 34.0 °F 86% 29.93 in 10.0 mi NNW 11.5 mph - 0.00 in   Overcast
6:53 PM 37.4 °F 31.4 °F 33.8 °F 87% 29.94 in 10.0 mi NNW 8.1 mph - N/A   Overcast
7:53 PM 37.9 °F 31.5 °F 34.0 °F 86% 29.95 in 10.0 mi NNW 9.2 mph - N/A   Mostly Cloudy
8:53 PM 37.0 °F 34.5 °F 34.0 °F 89% 29.97 in 10.0 mi Variable 3.5 mph - N/A   Mostly Cloudy
9:53 PM 34.0 °F 29.8 °F 33.1 °F 96% 29.99 in 10.0 mi West 4.6 mph - N/A   Clear
10:53 PM 36.0 °F 30.3 °F 33.1 °F 89% 30.01 in 10.0 mi WNW 6.9 mph - N/A   Clear
11:53 PM 35.1 °F 29.3 °F 33.1 °F 92% 30.04 in 10.0 mi WNW 6.9 mph - N/A   Clear